This demonstration page uses our WeatherBlox Daily Observations layout. Learn more.

Left ArrowRight Arrow

47.50024, -111.30081

Hourly Observations for November 23, 2015

Temp ( °F °C ) Dew Point ( °F °C ) Humidity (%) Winds ( mph kmh ) Pressure ( in mb ) Visibility ( mi km ) Precip ( " mm )
12:53 am 00:53 Mostly Clear 39 3.9 17 -8.3 41 41 SW 8 13 29.98 1015 10 16 0.00 0.00
1:53 am 01:53 Partly Cloudy 36 2.2 17 -8.3 46 46 NNE 3 6 30.00 1016 10 16 0.00 0.00
2:53 am 02:53 Cloudy 36 2.2 21 -6.1 55 55 E 5 7 29.98 1015 10 16 0.00 0.00
3:53 am 03:53 Clear 36 2.2 19 -7.2 50 50 S 9 15 29.98 1015 10 16 0.00 0.00
4:53 am 04:53 Clear 37 2.8 17 -8.3 44 44 S 5 7 29.97 1015 10 16 0.00 0.00
5:53 am 05:53 Clear 31 -0.6 18 -7.8 59 59 SSW 9 15 29.97 1015 10 16 0.00 0.00
6:53 am 06:53 Clear 30 -1.1 18 -7.8 61 61 SSW 9 15 29.97 1015 10 16 0.00 0.00
7:53 am 07:53 Sunny 27 -2.8 18 -7.8 69 69 Calm 29.98 1015 10 16 0.00 0.00
8:53 am 08:53 Sunny 37 2.8 20 -6.7 50 50 SSW 7 11 29.93 1014 10 16 0.00 0.00
9:53 am 09:53 Sunny 40 4.4 21 -6.1 47 47 Calm 29.91 1013 10 16 0.00 0.00
10:53 am 10:53 Sunny 44 6.7 17 -8.3 34 34 SSW 8 13 29.88 1012 10 16 0.00 0.00
11:53 am 11:53 Sunny 47 8.3 19 -7.2 33 33 S 9 15 29.84 1011 10 16 0.00 0.00
12:53 pm 12:53 Sunny 51 10.6 20 -6.7 29 29 S 13 20 29.80 1009 10 16 0.00 0.00
1:53 pm 13:53 Sunny 50 10 19 -7.2 29 29 SSW 13 20 29.79 1009 10 16 0.00 0.00
2:53 pm 14:53 Sunny 50 10 20 -6.7 30 30 SSW 9 15 29.78 1008 10 16 0.00 0.00
3:53 pm 15:53 Sunny 49 9.4 22 -5.6 35 35 S 10 17 29.76 1008 10 16 0.00 0.00
4:53 pm 16:53 Clear 44 6.7 23 -5 43 43 S 9 15 29.76 1008 10 16 0.00 0.00
5:53 pm 17:53 Clear 44 6.7 21 -6.1 40 40 SSW 15 24 29.77 1008 10 16 0.00 0.00
6:53 pm 18:53 Clear 42 5.6 21 -6.1 43 43 SSW 15 24 29.78 1008 10 16 0.00 0.00
7:53 pm 19:53 Clear 39 3.9 21 -6.1 48 48 SSW 12 19 29.78 1009 10 16 0.00 0.00
8:53 pm 20:53 Clear 40 4.4 20 -6.7 45 45 S 13 20 29.73 1007 10 16 0.00 0.00
9:53 pm 21:53 Clear 37 2.8 20 -6.7 50 50 S 12 19 29.73 1007 10 16 0.00 0.00
10:53 pm 22:53 Clear 34 1.1 20 -6.7 56 56 S 7 11 29.73 1007 10 16 0.00 0.00
11:53 pm 23:53 Clear 39 3.9 21 -6.1 48 48 SSW 13 20 29.70 1006 10 16 0.00 0.00

Powered by AerisWeather